Torna al catalogo

STARLINK-3256

AttivoComunicazioniVLEO
NORAD 50202·PAYLOAD·🇺🇸 United States

Lanciato Dec 18, 2021 da Vandenberg Space Force Base

Loading…

Prossimi Passaggi (prossime 24 ore)

TLE

AggiornatoSource: CelesTrak SupGP

Epoca: Sep 14, 2026, 20:00 UTC

1 50202C 21125AY  26257.83381944 -.00019476  00000+0 -62635-3 0  2572
2 50202  53.1580  99.4544 0001321  84.1709 322.3645 15.31709281    17

Traccia STARLINK-3256 in tempo reale con AllMySat

Download on the App Store